Terminal Aerodrome Forecast
Issued by NWS Boise, ID

Home | Current Version | Previous Version | Text Only | Print | Product List | Glossary On
Versions: 1 2 3 4 5 6 7 8 9 10 11 12 13 14 15 16 17 18 19 20 21 22 23 24 25
000
FTUS45 KBOI 070524
TAFBNO
TAF
KBNO 070524Z 0706/0806 28011KT P6SM SCT070 BKN120
     FM071800 02015G25KT P6SM BKN100
     FM080100 02011KT P6SM BKN100=

USA.gov is the U.S. government's official web portal to all federal, state and local government web resources and services.